Amelia, Virginia, United States
Lat: 37.37N, Lon: 77.92W
Wx Zone: VAZ068
Local Info
Past Weather Observations for Thursday, September 22, 2016

NOTE: This archive is for the closest National Weather Service station to Amelia. Information may differ from the station used for current weather conditions.

Click here for Long-term Archive

Time Weather Temperature Dewpoint Humidity Pressure Winds Precip Visibility
23:55
Mostly Cloudy
N/A N/A N/A 30.06 in
(1018 mb)
Calm - 7SM
23:35
Partly Cloudy
N/A N/A N/A 30.06 in
(1018 mb)
N 3.5 mph
(N 6 kph)
- 10SM
23:15
Mostly Cloudy
N/A N/A N/A 30.06 in
(1018 mb)
N 4.6 mph
(N 7 kph)
- 10SM
22:55
Overcast
N/A N/A N/A 30.06 in
(1018 mb)
N 4.6 mph
(N 7 kph)
- 10SM
22:35
Overcast
Hazy
N/A N/A N/A 30.06 in
(1018 mb)
Calm - 5SM
22:15
Overcast
Hazy
N/A N/A N/A 30.06 in
(1018 mb)
Calm - 5SM
21:55
Overcast
Hazy
N/A N/A N/A 30.06 in
(1018 mb)
Calm - 5SM
21:35
Overcast
Hazy
N/A N/A N/A 30.06 in
(1018 mb)
Calm - 5SM
21:15
Overcast
Hazy
N/A N/A N/A 30.09 in
(1019 mb)
Calm - 5SM
20:55
Overcast
Hazy
N/A N/A N/A 30.09 in
(1019 mb)
Calm - 5SM
20:35
Overcast
Hazy
N/A N/A N/A 30.09 in
(1019 mb)
Calm - 5SM
20:15
Overcast
Hazy
N/A N/A N/A 30.06 in
(1018 mb)
Calm - 5SM
19:55
Overcast
N/A N/A N/A 30.06 in
(1018 mb)
Calm - 7SM
19:35
Overcast
N/A N/A N/A 30.06 in
(1018 mb)
Calm - 7SM
19:15
Overcast
N/A N/A N/A 30.06 in
(1018 mb)
Calm - 7SM
18:55
Overcast
N/A N/A N/A 30.06 in
(1018 mb)
Calm - 7SM
18:35
Overcast
N/A N/A N/A 30.06 in
(1018 mb)
Calm - 10SM
18:15
Overcast
Light Rain
N/A N/A N/A 30.06 in
(1018 mb)
N 3.5 mph
(N 6 kph)
- 10SM
17:55
Overcast
Light Rain
N/A N/A N/A 30.06 in
(1018 mb)
NW 3.5 mph
(NW 6 kph)
- 7SM
17:35
Overcast
Light Rain
N/A N/A N/A 30.06 in
(1018 mb)
Calm - 7SM
17:15
Mostly Cloudy
Light Rain
N/A N/A N/A 30.06 in
(1018 mb)
Calm - 7SM
16:55
Mostly Cloudy
Rain
N/A N/A N/A 30.06 in
(1018 mb)
E 4.6 mph
(E 7 kph)
- 4SM
16:35
Overcast
Light Rain
N/A N/A N/A 30.06 in
(1018 mb)
E 5.8 mph
(E 9 kph)
- 7SM
16:15
Overcast
Rain
N/A N/A N/A 30.06 in
(1018 mb)
E 6.9 mph
(E 11 kph)
- 2 1/2SM
15:55
Overcast
Rain
75°F / 24°C 73°F / 23°C 94% 30.06 in
(1018 mb)
E 10.4 mph
(E 17 kph)
- 7SM
15:35
Overcast
81°F / 27°C 70°F / 21°C 70% 30.06 in
(1018 mb)
ENE 10.4 mph
(ENE 17 kph)
- 10SM
15:15
Overcast
81°F / 27°C 70°F / 21°C 70% 30.06 in
(1018 mb)
NE 11.5 mph
(NE 19 kph)
- 10SM
14:55
Overcast
81°F / 27°C 70°F / 21°C 70% 30.06 in
(1018 mb)
NE 12.7 mph
(NE 20 kph)
- 10SM
14:35
Overcast
81°F / 27°C 70°F / 21°C 70% 30.06 in
(1018 mb)
NE 13.8 mph
(NE 22 kph)
- 10SM
14:15
Overcast
81°F / 27°C 70°F / 21°C 70% 30.06 in
(1018 mb)
NE 9.2 mph
(NE 15 kph)
- 10SM
13:55
Mostly Cloudy
82°F / 28°C 72°F / 22°C 70% 30.06 in
(1018 mb)
NNE 11.5 mph
(NNE 19 kph)
- 10SM
13:35
Mostly Cloudy
Light Rain
81°F / 27°C 72°F / 22°C 74% 30.06 in
(1018 mb)
N 10.4 mph
(N 17 kph)
- 10SM
13:15
Overcast
Light Rain
79°F / 26°C 72°F / 22°C 79% 30.06 in
(1018 mb)
NE 9.2 mph
(NE 15 kph)
- 10SM
12:55
Overcast
79°F / 26°C 73°F / 23°C 84% 30.09 in
(1019 mb)
NE 4.6 mph
(NE 7 kph)
- 10SM
12:35
Overcast
Light Rain
77°F / 25°C 75°F / 24°C 94% 30.09 in
(1019 mb)
ENE 4.6 mph
(ENE 7 kph)
- 7SM
12:15
Overcast
Light Rain
79°F / 26°C 72°F / 22°C 79% 30.09 in
(1019 mb)
NE 9.2 mph
(NE 15 kph)
- 10SM
11:55
Overcast
79°F / 26°C 72°F / 22°C 79% 30.09 in
(1019 mb)
NE 8.1 mph
(NE 13 kph)
- 10SM
11:35
Overcast
79°F / 26°C 72°F / 22°C 79% 30.09 in
(1019 mb)
NE 9.2 mph
(NE 15 kph)
- 10SM
11:15
Overcast
79°F / 26°C 72°F / 22°C 79% 30.09 in
(1019 mb)
NE 8.1 mph
(NE 13 kph)
- 10SM
10:55
Overcast
77°F / 25°C 73°F / 23°C 89% 30.09 in
(1019 mb)
NE 10.4 mph
(NE 17 kph)
- 10SM
10:35
Overcast
77°F / 25°C 73°F / 23°C 89% 30.12 in
(1020 mb)
NE 6.9 mph
(NE 11 kph)
- 10SM
10:15
Overcast
75°F / 24°C 75°F / 24°C 100% 30.12 in
(1020 mb)
NNE 9.2 mph
(NNE 15 kph)
- 10SM
09:55
Overcast
Light Rain
75°F / 24°C 75°F / 24°C 100% 30.12 in
(1020 mb)
NE 6.9 mph
(NE 11 kph)
- 10SM
09:35
Overcast
Light Rain
75°F / 24°C 75°F / 24°C 100% 30.12 in
(1020 mb)
N 6.9 mph
(N 11 kph)
- 10SM
09:15
Overcast
Light Rain
N/A N/A N/A 30.12 in
(1020 mb)
NE 8.1 mph
(NE 13 kph)
- 10SM
08:55
Overcast
Light Rain
N/A N/A N/A 30.12 in
(1020 mb)
N 5.8 mph
(N 9 kph)
- 10SM
08:35
Overcast
Light Rain
N/A N/A N/A 30.12 in
(1020 mb)
NNE 8.1 mph
(NNE 13 kph)
- 10SM
08:15
Overcast
Light Rain
N/A N/A N/A 30.12 in
(1020 mb)
NE 10.4 mph
(NE 17 kph)
- 7SM
07:55
Overcast
Light Rain
N/A N/A N/A 30.12 in
(1020 mb)
N 6.9 mph
(N 11 kph)
- 5SM
07:35
Overcast
Light Rain
N/A N/A N/A 30.12 in
(1020 mb)
N 6.9 mph
(N 11 kph)
- 5SM
07:15
Overcast
Light Rain
N/A N/A N/A 30.12 in
(1020 mb)
N 6.9 mph
(N 11 kph)
- 4SM
06:55
Overcast
Light Rain
N/A N/A N/A 30.12 in
(1020 mb)
NNE 8.1 mph
(NNE 13 kph)
- 5SM
06:35
Overcast
Hazy
N/A N/A N/A 30.12 in
(1020 mb)
N 9.2 mph
(N 15 kph)
- 5SM
06:15
Overcast
Hazy
N/A N/A N/A 30.09 in
(1019 mb)
N 6.9 mph
(N 11 kph)
- 5SM
05:55
Overcast
N/A N/A N/A 30.09 in
(1019 mb)
N 5.8 mph
(N 9 kph)
- 7SM
05:35
Overcast
N/A N/A N/A 30.09 in
(1019 mb)
N 4.6 mph
(N 7 kph)
- 10SM
05:15
Overcast
N/A N/A N/A 30.09 in
(1019 mb)
NNE 4.6 mph
(NNE 7 kph)
- 10SM
04:55
Overcast
N/A N/A N/A 30.09 in
(1019 mb)
NNE 5.8 mph
(NNE 9 kph)
- 10SM
04:35
Overcast
Light Rain
N/A N/A N/A 30.06 in
(1018 mb)
NE 4.6 mph
(NE 7 kph)
- 10SM
04:15
Overcast
Light Rain
N/A N/A N/A 30.06 in
(1018 mb)
NNE 8.1 mph
(NNE 13 kph)
- 10SM
03:55
Overcast
N/A N/A N/A 30.06 in
(1018 mb)
NE 6.9 mph
(NE 11 kph)
- 10SM
03:35
Overcast
N/A N/A N/A 30.06 in
(1018 mb)
N 8.1 mph
(N 13 kph)
- 10SM
03:15
Overcast
Light Rain
N/A N/A N/A 30.06 in
(1018 mb)
NNE 5.8 mph
(NNE 9 kph)
- 10SM
02:55
Overcast
Light Rain
N/A N/A N/A 30.06 in
(1018 mb)
NE 6.9 mph
(NE 11 kph)
- 7SM
02:35
Overcast
Light Rain
N/A N/A N/A 30.06 in
(1018 mb)
NNE 6.9 mph
(NNE 11 kph)
- 7SM
02:15
Overcast
Light Rain
N/A N/A N/A 30.09 in
(1019 mb)
NE 8.1 mph
(NE 13 kph)
- 10SM
01:55
Overcast
Light Rain
N/A N/A N/A 30.06 in
(1018 mb)
NNE 6.9 mph
(NNE 11 kph)
- 10SM
01:35
Overcast
Light Rain
N/A N/A N/A 30.09 in
(1019 mb)
NNE 9.2 mph
(NNE 15 kph)
- 7SM
01:15
Overcast
Light Rain
N/A N/A N/A 30.09 in
(1019 mb)
NNE 9.2 mph
(NNE 15 kph)
- 7SM
00:55
Overcast
Light Rain
N/A N/A N/A 30.09 in
(1019 mb)
N 6.9 mph
(N 11 kph)
- 10SM
00:35
Overcast
Light Rain
N/A N/A N/A 30.09 in
(1019 mb)
NE 8.1 mph
(NE 13 kph)
- 10SM
00:15
Overcast
Light Rain
N/A N/A N/A 30.09 in
(1019 mb)
NNE 9.2 mph
(NNE 15 kph)
- 10SM
Time Weather Temperature Dewpoint Humidity Pressure Winds Precip Visibility


Weather for websites

WeatherForYou.com, LLC is not responsible for any damages or problems caused by this service. Current weather conditions are obtained from the closest station including government and personal stations which may have varying degrees of accuracy. Weather forecasts are derived from the NOAA NDFD. Like all things, this site belongs to Jesus Christ... He just trusts us to maintain it. If you have any questions or comments email webmaster@weatherforyou.com

Copyright © 2016, WeatherForYou.com LLC. All rights reserved.